Walla Walla, WA
on Wednesday, February 6, 2013

Wednesday
Previous Day Next Day
Daily Summary
 ActualAverage (KPDT)Record (KPDT)
Temperature
Mean Temperature °F 37°F  
Max Temperature 52°F 45°F 67°F (1996)
Min Temperature 41°F 30°F -6°F (1899)
Degree Days
Heating Degree Days 18 28  
Month to date heating degree days 168  
Since 1 July heating degree days 3326  
Cooling Degree Days 0 0  
Month to date cooling degree days 0  
Year to date cooling degree days 0  
Moisture
Dew Point 31°F   
Average Humidity 56    
Maximum Humidity 73    
Minimum Humidity 35    
Precipitation
Precipitation 0.00 in 0.04 in 0.83 in (1938)
Month to date precipitation 0.23  
Year to date precipitation 1.66  
Snow
Snow 0.00 in 0.10 in 8.00 in (1938)
Month to date snowfall 0.7  
Year to date snowfall 4.4  
Since 1 July snowfall 11.9  
Snow Depth in   
Wind
Wind Speed 10 mph   
Max Wind Speed 16 mph   
Max Gust Speed 20 mph   
Visibility 10 miles   
Events     

Key: T is trace of precipitation, MM is missing value
Source: NWS Daily Summary
Time(PST)TemperatureDew PointHumidity Pressure Visibility Wind DirectionWind SpeedGust SpeedPrecipitationEvents Conditions
12:53 AM 44.1°F 36.0°F 73% 30.02 in 10.0 miles South 13.8 mph - N/A   Overcast
1:53 AM 44.1°F 33.1°F 65% 30.04 in 10.0 miles SSW 11.5 mph - N/A   Overcast
2:53 AM 44.1°F 32.0°F 63% 30.04 in 10.0 miles South 11.5 mph - N/A   Overcast
4:53 AM 43.0°F 32.0°F 65% 30.06 in 10.0 miles South 12.7 mph - N/A   Mostly Cloudy
5:53 AM 41.0°F 30.9°F 67% 30.07 in 10.0 miles South 6.9 mph - N/A   Partly Cloudy
6:53 AM 42.1°F 30.0°F 62% 30.09 in 10.0 miles South 9.2 mph - N/A   Mostly Cloudy
7:53 AM 43.0°F 30.0°F 60% 30.10 in 10.0 miles South 8.1 mph - N/A   Overcast
8:53 AM 44.1°F 30.9°F 60% 30.11 in 10.0 miles South 9.2 mph - N/A   Overcast
9:53 AM 46.0°F 32.0°F 58% 30.12 in 10.0 miles SSW 6.9 mph - N/A   Scattered Clouds
10:53 AM 48.9°F 33.1°F 54% 30.12 in 10.0 miles SSW 9.2 mph - N/A   Overcast
11:53 AM 51.1°F 33.1°F 50% 30.10 in 10.0 miles West 8.1 mph - N/A   Clear
12:53 PM 52.0°F 32.0°F 47% 30.08 in 10.0 miles SW 9.2 mph - N/A   Clear
1:53 PM 51.1°F 33.1°F 50% 30.07 in 10.0 miles West 9.2 mph - N/A   Mostly Cloudy
2:53 PM 52.0°F 30.9°F 45% 30.06 in 10.0 miles Calm Calm - N/A   Partly Cloudy
3:53 PM 51.1°F 36.0°F 56% 30.05 in 10.0 miles North 5.8 mph - N/A   Clear
4:53 PM 45.0°F 35.1°F 68% 30.03 in 10.0 miles NE 8.1 mph - N/A   Clear
5:53 PM 42.1°F 34.0°F 73% 30.01 in 10.0 miles ENE 9.2 mph - N/A   Clear
6:53 PM 44.1°F 33.1°F 65% 30.00 in 10.0 miles East 9.2 mph - N/A   Mostly Cloudy
8:53 PM 46.9°F 27.0°F 46% 29.96 in 10.0 miles Calm Calm - N/A   Partly Cloudy
9:53 PM 48.9°F 25.0°F 39% 29.93 in 10.0 miles Variable 3.5 mph - N/A   Clear
10:53 PM 51.1°F 26.1°F 38% 29.91 in 10.0 miles South 11.5 mph 19.6 mph N/A   Clear
11:53 PM 52.0°F 25.0°F 35% 29.88 in 10.0 miles SSE 16.1 mph - N/A   Clear
Moon Phase
Feb. 06 Feb. 10 Feb. 17 Feb. 25 Mar. 04
Sunrise:07:08 AM (PST) Moon Rise:04:03 AM (PST)2/6
Sunset:05:06 PM (PST) Moon Set:01:23 PM (PST)2/6

Copyright © 2014 The Weather Underground, Inc.